Regional Weather Roundup
Issued by NWS Wakefield, VA

Home | Current Version | Previous Version | Graphics & Text | Print | Product List | Glossary On
Versions: 1 2 3 4 5 6 7 8 9 10 11 12 13 14 15 16 17 18 19 20 21 22 23 24 25 26 27
000
ASUS41 KAKQ 230715
RWRAKQ

REGIONAL WEATHER ROUNDUP
NATIONAL WEATHER SERVICE WAKEFIELD VA
200 AM EST THU FEB 23 2017

Note: "fair" indicates few or no clouds below 12,000 feet with no
significant weather and/or obstructions to visibility. * = Denotes
station may not report precipitation (e.g., rain,snow,etc.),
thunder or fog.

VAZ042-051-052>054-056-230800-
NORTHERN VIRGINIA

CITY           SKY/WX    TMP DP  RH WIND       PRES   REMARKS
WASH NATIONAL  CLOUDY    55  53  93 S7        29.90S
DULLES         CLOUDY    55  52  89 S6        29.88F
FORT BELVOIR   CLOUDY    53  50  90 CALM      29.89F
QUANTICO       CLOUDY    52  52 100 SW5       29.91S
FREDERICKSBRG* CLOUDY    58  56  93 SW9       29.89F
STAFFORD*      CLOUDY    55  54  97 CALM      29.94S
WARRENTON      CLOUDY    56  51  82 S5        29.89S
CULPEPER*      CLOUDY    56  54  92 S6        29.90S
MANASSAS*      CLOUDY    54  52  93 CALM      29.90S
LEESBURG*      CLOUDY    52  52 100 MISG      29.89F
WINCHESTER     CLOUDY    55  48  76 SW7       29.86F
FRONT ROYAL*   CLOUDY    55  50  82 S5        29.86F
LURAY*         CLOUDY    55  52  88 SW3       29.88F
$$

VAZ048-049-060>072-079>083-230800-
CENTRAL AND SOUTH CENTRAL VIRGINIA

CITY           SKY/WX    TMP DP  RH WIND       PRES   REMARKS
RICHMOND       CLOUDY    52  52 100 CALM      29.91F FOG
CHESTERFIELD*  PTSUNNY   52  37  58 CALM      29.93F
PETERSBURG*    MIX PCPN  51  50  97 CALM      29.93S
HANOVER        CLOUDY    54  50  86 CALM      29.93F
TAPPAHANNOCK*  CLOUDY    56  56 100 SW3       29.92S
QUINTON*       PTSUNNY   52  52 100 S3        29.91F FOG
CHARLOTTSVILLE CLOUDY    55  53  93 S8        29.90S
GORDONSVILLE*  CLOUDY    55  54  97 SW6       29.91S
ORANGE*        CLOUDY    54  52  94 CALM      29.91F
LOUISA*        CLOUDY    57  57 100 S5        29.90F
BUMPASS*       CLOUDY    54  54 100 CALM      29.91F
FARMVILLE*     FOG       52  52 100 CALM      29.91F VSB 1/4
CREWE*           N/A     50  50 100 CALM      29.92S
FORT PICKETT*    N/A     52  48  87 CALM      29.92S
CHASE CITY*    FAIR      49  48  95 CALM      29.92S
CLARKSVILLE*   CLOUDY    50  50 100 CALM      29.91F VSB 1/4
SOUTH HILL*    CLOUDY    50  50 100 S3        29.97F
LAWRENCEVILLE* FAIR      51  50  97 CALM      29.91F
EMPORIA*       FOG       50  50 100 CALM      29.94F VSB 1/2
$$

VAZ088>098-230800-
SOUTHEAST VIRGINIA

CITY           SKY/WX    TMP DP  RH WIND       PRES   REMARKS
NORFOLK        CLOUDY    58  51  78 S7        29.93S
VIRGINIA BEACH CLOUDY    58  50  75 S7        29.93S
NORFOLK NAVAL  CLOUDY    60  51  72 S7        29.94S
WEST POINT*    CLOUDY    54  53  95 CALM      29.93S
SALUDA*        CLOUDY    55  52  90 CALM      29.92S
NEWPORT NEWS   CLOUDY    57  52  83 SW7       29.93S
LANGLEY AFB    CLOUDY    57  53  87 S7        29.92S
FORT EUSTIS    CLOUDY    55  52  89 S3        29.90S
WILLIAMSBURG*  CLOUDY    55  55 100 CALM      29.93S
HR EXEC AP*    CLOUDY    57  52  82 S6        29.92F
FRANKLIN*      LGT RAIN  55  52  89 S3        29.94S
US460-WAKEFLD  CLOUDY    55  53  93 CALM      29.92F
$$

VAZ020-022-025-037-045-230800-
WEST CENTRAL AND SOUTHWEST VIRGINIA

CITY           SKY/WX    TMP DP  RH WIND       PRES   REMARKS
STAUNTON*      CLOUDY    53  50  90 S6        29.92F
WAYNESBORO*    CLOUDY    50  49  95 CALM      29.91S
HOT SPRINGS VA PTCLDY    50  50 100 W14       29.93F
LYNCHBURG      CLOUDY   N/A N/A N/A MISG      29.93F
DANVILLE       FOG       51  51 100 CALM      29.92F VSB 1/2
SOUTH BOSTON*  CLOUDY    48  47  95 CALM      29.92S VSB 3/4
MARTINSVILLE   FOG       51  50  97 CALM      29.95F VSB 1/4
ROANOKE        FOG       51  51 100 CALM      29.94F VSB 1/4
BLACKSBURG     FOG       46  46 100 CALM      29.96S VSB 1/4
DUBLIN*        FOG       47  47 100 CALM      29.94S VSB 1/2
MARION*        FOG       48  47  96 CALM      29.96S VSB 1/4
HILLSVILLE*    CLEAR     51  50  98 CALM      29.93S
RICHLANDS*     FOG       50  50 100 CALM      29.92F VSB 1
WISE*          CLEAR     52  52 100 CALM      29.92F
ABINGDON*      FOG       47  47 100 E6        29.92F VSB 1/4
$$

MDZ021>025-VAZ099-100-230800-
SOUTHERN MARYLAND AND THE DELMARVA PENINSULA

CITY           SKY/WX    TMP DP  RH WIND       PRES   REMARKS
PATUXENT RIVER CLOUDY    55  53  93 CALM      29.90F
BAY BRIDGE APT CLOUDY    50  50 100 S3        29.90S FOG
LEONARDTOWN    CLOUDY    55  52  88 S3        29.92S
DOVER          FOG       48 N/A N/A S3        29.89F VSB 1/2
GEORGETOWN     CLOUDY    51  50  96 S3        29.91F
EASTON         LGT RAIN  54  52  93 S5        29.94S
CAMBRIDGE      CLOUDY    54  52  94 SE5       29.91F
SALISBURY      CLOUDY    56  54  93 S5        29.91F
OCEAN CITY     CLOUDY    54  49  83 SW6       29.92F
WALLOPS ISLAND CLOUDY    51  50  96 S7        29.93F
ACCOMACK*      CLOUDY    55  50  85 S6        29.92F
$$

NCZ012>017-030>032-230800-
NORTH CENTRAL AND EASTERN NORTH CAROLINA

CITY           SKY/WX    TMP DP  RH WIND       PRES   REMARKS
ROANOKE RAPIDS FAIR      52  52 100 CALM      29.93S
RALEIGH        CLOUDY    55  51  86 CALM      29.93S
ELIZABETH CITY CLOUDY    54  51  90 SE3       29.94F
AHOSKIE*         N/A     54  52  94 CALM      29.94S
EDENTON*       CLOUDY    54  51  89 CALM      29.95S
CURRITUCK*     CLOUDY    56  51  84 CALM      29.95S
KILL DEVIL HLS NOT AVBL
MANTEO         CLOUDY    57  54  88 CALM      29.95S
CAPE HATTERAS  HVY RAIN  62  58  86 VRB3      29.94S FOG
TARBORO*       NOT AVBL
GOLDSBORO      CLOUDY    53  53 100 CALM      29.91S
WASHINGTON     PTCLDY    52  50  93 CALM      29.94S
GREENVILLE     MOCLDY    54  52  94 CALM      29.96S
NEW BERN       PTCLDY    50  50 100 CALM      29.94S
WILMINGTON     PTCLDY    55  53  93 CALM      29.90F
$$

VAZ048-230800-
ELSEWHERE

CITY           SKY/WX    TMP DP  RH WIND       PRES   REMARKS
HARRISBURG PA  PTCLDY    43  41  93 E5        29.87F
BALTIMORE      CLOUDY    47  46  97 CALM      29.89S
ANNAPOLIS      FOG       48  48 100 CALM      29.89S VSB 1/2
ANDREWS AFB    CLOUDY    54  53  95 SW6       29.88F
PHILADELPHIA   CLOUDY    47  45  93 W6        29.91R FOG
HENDERSON NC   MOCLDY    49  48  96 CALM      29.92S
GREENSBORO     FOG       53  53 100 CALM      29.92S VSB 1
ROCKY MOUNT    CLOUDY    53  52  96 CALM      29.93F
$$

VAZ100-230800-
MARINE

STATION/POSITION TIME  TEMP    WIND        PRES    WAVE   SWELL
                       AIR SEA DIR/SP/G            HT/PER HT/PER
                 (UTC) (F)     (DEG/KT/KT) (MB)    (FT/S) (FT/S)
CAPE MAY NJ      0648   50 42  170/  2/  3 1012.4F
LEWES DE         0648   53 43  210/  3/  5 1012.5F
OCEAN-CITY-INLET 0648   48 46  210/  5/  6 1013.6F
WACHAPREAGUE VA  0642   51 52  190/  4/  5 1013.4F
THOMAS POINT MD  0700   46 42  190/  9/ 10   N/A
GOOSES REEF MD   0700   46 44  170/  8/  8 1013.2    0
COVE POINT MD    0642   47     190/  9/  9 1013.2F
SOLOMONS ISLAND  0642   50 44  120/  5/  5   N/A
BISHOPS HEAD MD  0648   49 46  190/  3/  5 1013.2F
PINEY POINT MD   0648          170/  3/  4   N/A
POTOMAC MD       0700   48 45  140/  4/  4 1012.0    0
CAMBRIDGE MD     0648   54 42  170/  4/  7 1012.0F
LEWISETTA VA     0642   55 44  190/  3/  3 1012.5F
RAPPAHANNOCK LGT 0648          170/ 13/ 15 1013.5F
YORK RVR RNG VA  0642   53     200/  9/  9 1012.5F
YORKTOWN VA      0642   58 48  210/  5/  6 1012.8F
JAMESTOWN VA     0700   55 51   90/  2/  4   N/A     0
DOMINION TERM VA 0642   55     200/  5/  5 1013.4F
KIPTOPEKE VA     0648      47  160/  8/  9   N/A
CHES BAY BRIDGE  0642   58 47  200/  7/  7 1013.4F
CAPE HENRY VA    0642   59     180/  6/  8   N/A
WILLOUBY STN VA  0642   59     200/  8/  9 1014.2F
S CRANEY ISL VA  0642   56     190/  6/  7 1013.3F
CAPE HENRY BUOY  0642      49                N/A     3/10
OFFSHORE WE BUOY 0651      48                N/A     3/ 8   2/11
64NM E OF VA BCH 0650   58 54  160/  6/  6 1013.8F   3/10   3/10
DUCK PIER NC     0648   58 48  200/  5/  6 1013.4F
44100 DUCK FRF   0605      48                N/A     3/11   2/11
44056 DUCK FRF   0630      50                N/A     3/11   2/11
OREGON INLET NC  0642   54 54  110/  4/  6 1013.9F
HATTERAS NC      0648   62 61   80/  3/  3 1013.5F
DIAMOND SHLS NC  0650   68 73  180/ 16/ 17 1013.7F   4/10   2/10
CAPE LOOKOUT NC  0700   64     150/  7/  7 1012.8F
$$




USA.gov is the U.S. government's official web portal to all federal, state and local government web resources and services.